Volver al catálogo

STARLINK-36876

ActivoComunicacionesSSO
NORAD 67902·PAYLOAD·🇺🇸 United States

Lanzado Feb 21, 2026 desde Vandenberg Space Force Base

Loading…

Próximos Pases (próximas 24 horas)

TLE

ActualizadoSource: CelesTrak SupGP

Época: Sep 14, 2026, 23:07 UTC

1 67902C 26035Z   26257.96368056 -.00039503  00000+0 -12267-2 0  2573
2 67902  97.2847 189.9361 0001908  96.0818  37.1542 15.33448734    15

Sigue STARLINK-36876 en tiempo real con AllMySat

Download on the App Store